Flag for Germany Weather past 2 weeks in Saarbrücken, Saarland, Germany

Now
45 °F

Sprinkles. Partly sunny.


Feels Like: 39 °F
Forecast: 40 / 50 °F
Wind: 12 mph from West

Location: Saarbruecken / Ensheim

Current Time: Mar 30, 2015 at 8:50:42 AM

Latest Report: Mar 30, 2015 at 8:20 AM


Visibility: N/A

Pressure: 29.62 "Hg

Humidity: 87%

Dew point: 41 °F

Location of SaarbrückenLocation

Historic Weather in Saarbrücken — Graph

°F

Saarbrücken temperature yesterday

Maximum temperature yesterday: 50 °F (at 3:20 AM)
Minimum temperature yesterday: 48 °F (at 12:20 AM)
Average temperature yesterday: 49 °F

Past Weeks' High & Low Weather Summary

 TemperatureHumidityPressure
High64 °F (Mar 18, 2:20 PM)100% (Mar 21, 8:50 AM)30.30 "Hg (Mar 21, 8:50 AM)
Low32 °F (Mar 21, 6:20 AM)32% (Mar 18, 3:50 PM)29.53 "Hg (Mar 29, 9:50 PM)
Average44 °F74%30.01 "Hg
* Reported Mar 15 6:20 AM — Mar 30 7:50 AM, Saarbrücken, Weather by CustomWeather, © 2015

Note: Actual official high and low records may vary slightly from our data, if they occured in-between our weather recording intervals... More about our weather records

Advertising

Saarbrücken weather history for previous 24 hours

 ConditionsComfort  
Time TempWeatherWind HumidityBarometerVisibility
7:50 AM
Mon, Mar 30
45 °FSprinkles. Mostly cloudy.18 mph87%29.62 "HgN/A
7:20 AM45 °FMostly cloudy.16 mph87%29.59 "HgN/A
6:50 AM45 °FMostly cloudy.17 mph87%29.59 "HgN/A
6:20 AM45 °FLight rain. Mostly cloudy.17 mph87%29.56 "HgN/A
5:50 AM45 °FLight rain. Mostly cloudy.18 mph93%29.56 "HgN/A
5:20 AM45 °FLight rain. Passing clouds.18 mph93%29.56 "HgN/A
4:50 AM45 °FLight rain. Passing clouds.18 mph93%29.56 "HgN/A
4:20 AM45 °FLight rain. Passing clouds.13 mph93%29.56 "HgN/A
3:50 AM46 °FLight rain. Passing clouds.22 mph87%29.56 "HgN/A
3:20 AM46 °FLight rain. Passing clouds.20 mph87%29.56 "HgN/A
2:50 AM46 °FLight rain. Passing clouds.18 mph87%29.56 "HgN/A
2:20 AM48 °FLight rain. Passing clouds.28 mph76%29.56 "HgN/A
1:50 AM48 °FLight rain. Partly cloudy.26 mph76%29.56 "HgN/A
1:20 AM48 °FLight rain. Passing clouds.29 mph82%29.56 "HgN/A
12:50 AM48 °FLight rain. Passing clouds.21 mph94%29.56 "HgN/A
12:20 AM48 °FLight rain. Partly cloudy.28 mph87%29.56 "HgN/A
11:50 PM
Sun, Mar 29
50 °FLight rain. Partly cloudy.25 mph88%29.56 "HgN/A
11:20 PM50 °FLight rain. Passing clouds.29 mph88%29.56 "Hg4 mi
10:50 PM50 °FPartly cloudy.29 mph88%29.56 "HgN/A
10:20 PM50 °FLight rain. Passing clouds.30 mph88%29.53 "HgN/A
9:50 PM50 °FLight rain. Passing clouds.28 mph94%29.53 "HgN/A
9:20 PM50 °FPassing clouds.29 mph94%29.56 "HgN/A
8:50 PM50 °FPartly sunny.24 mph94%29.56 "HgN/A
8:20 PM50 °FLight rain. Partly sunny.28 mph94%29.56 "HgN/A
7:50 PM50 °FLight rain. Broken clouds.31 mph88%29.56 "Hg4 mi
7:20 PM50 °FLight rain. Mostly cloudy.28 mph88%29.59 "Hg3 mi
6:50 PM50 °FDrizzle. Mostly cloudy.29 mph88%29.59 "Hg3 mi
6:20 PM50 °FDrizzle. Mostly cloudy.30 mph88%29.59 "Hg4 mi
5:50 PM50 °FDrizzle. Mostly cloudy.29 mph94%29.59 "HgN/A
5:20 PM50 °FDrizzle. Mostly cloudy.25 mph94%29.62 "Hg3 mi
4:50 PM50 °FDrizzle. Mostly cloudy.24 mph88%29.65 "Hg3 mi
4:20 PM50 °FDrizzle. Partly sunny.25 mph88%29.65 "HgN/A
3:50 PM48 °FDrizzle. Partly sunny.25 mph94%29.65 "Hg3 mi
3:20 PM48 °FLight rain. Broken clouds.26 mph94%29.68 "Hg4 mi
2:50 PM50 °FLight rain. Partly sunny.24 mph88%29.71 "HgN/A
2:20 PM50 °FLight rain. Partly sunny.25 mph88%29.71 "HgN/A
1:50 PM48 °FLight rain. Partly sunny.23 mph94%29.74 "HgN/A
1:20 PM48 °FLight rain. Partly sunny.22 mph94%29.77 "HgN/A
12:50 PM48 °FLight rain. Partly sunny.24 mph87%29.77 "HgN/A
12:20 PM48 °FLight rain. Partly sunny.21 mph87%29.77 "HgN/A
11:50 AM48 °FLight rain. Partly sunny.22 mph87%29.80 "HgN/A
11:20 AM48 °FLight rain. Partly sunny.21 mph87%29.80 "HgN/A
10:50 AM48 °FLight rain. Partly sunny.20 mph87%29.80 "HgN/A
10:20 AM48 °FLight rain. Partly sunny.18 mph87%29.83 "HgN/A
9:50 AM48 °FLight rain. Partly sunny.20 mph87%29.83 "HgN/A
9:20 AM48 °FLight rain. Partly sunny.21 mph87%29.83 "HgN/A
8:50 AM48 °FPartly sunny.17 mph87%29.86 "HgN/A
8:20 AM48 °FPartly sunny.21 mph94%29.86 "HgN/A
Weather by CustomWeather, © 2015

See weather overviewHow to use our weather pages